map of MDQ home
Great Circle Mapper logo
MDQ - Airport
Location
City:  Mar del Plata, Buenos Aires, Argentina
ICAO / IATA:SAZM / MDQ

Details
Type:Airport (Aerodrome, Airfield)
Use:Public/Civil, Military
Latitude:3756'03"S (-37.934166)
Longitude:5734'24"W (-57.573332)
Datum:WGS 1984
Elevation:71 ft (22 m)
Runways:1
Longest:7218 × 197 ft (2200 × 60 m), paved

Time
Time Zone:UTC-3
Local Time:

Weather
METAR:SAZM 230300Z 18010KT 9999 BKN012 SCT100 12/08 Q1015
TAF:SAZM 221700Z 2218/2318 34020KT 9999 SCT020 BKN100 TX19/2218Z TN10/2310Z
BECMG 2300/2302 23010KT 5000 RA BKN010 OVC040
BECMG 2312/2314 11010KT 8000 BR BKN025 BKN100

Related Locations
Nearby:
Farthest:WEH: 12378 mi / 19920 km
Weihai (Wendeng) [Dashuipo], Shandong, CN

Find:

   beyond  
but within

Other Information
Maps:
NOTAMs:
Links:
Sources:

  
flag of Argentina
flag of Buenos Aires
  

Sectional Chart

Flight Planning
at skyvector.com

Satellite Image

Google Maps Satellite View

 

Copyright © 2004-2014 Karl L. Swartz. All rights reserved.
The Great Circle Mapper name and logo are trademarks of the Great Circle Mapper.
All other trademarks mentioned herein belong to their respective owners.
Please see credits for attibutions and further copyright information.

  Follow gcmap on Facebook Follow gcmap on Twitter

hCard Microformat

Geo Microformat